Regional Weather Roundup
Issued by NWS

Current Version | Previous Version | Text Only | Print | Product List | Glossary On
Versions: 1 2 3 4 5 6 7 8 9 10 11 12 13 14 15 16 17 18 19 20 21 22 23 24 25 26 27 28 29 30 31 32 33 34 35 36 37 38 39 40 41 42 43 44 45 46 47 48 49 50
000
ASUS44 KMEG 281610
RWRTN
TENNESSEE HOURLY STATE WEATHER ROUNDUP
NATIONAL WEATHER SERVICE MEMPHIS TN
1000 AM CST SAT FEB 28 2015

TNZ002-004-019-021-049-052-054-088>092-281700-
WEST TENNESSEE

CITY           SKY/WX    TMP DP  RH WIND       PRES   REMARKS
MEMPHIS INTL   CLOUDY    32  14  47 NE10      30.55F WCI  24
NWS MEMPHIS      N/A     30 N/A N/A MISG        N/A
JACKSON        CLOUDY    30  14  51 E9        30.57F WCI  22
DYERSBURG      CLOUDY    27   9  46 NE9       30.61F WCI  17
UNION CITY     PTSUNNY   25  16  68 NE9       30.59F WCI  15
PARIS          PTSUNNY   27  12  54 NE8       30.59F WCI  18
LEXINGTON      CLOUDY    30  10  43 NE8       30.56F WCI  23
SAVANNAH       CLOUDY    34  12  40 NE3       30.56S
$$

TNZ008-025-027-028-033-062-065-066-281700-
NORTH MIDDLE TENNESSEE

CITY           SKY/WX    TMP DP  RH WIND       PRES   REMARKS
NASHVILLE      CLOUDY    31  13  47 NE5       30.62S WCI  26
CLARKSVILLE    CLOUDY    28  15  58 E12       30.62F WCI  18
SMYRNA         PTSUNNY   32  14  47 N6        30.62F WCI  26
COOKEVILLE     MOSUNNY   34  18  51 CALM      30.56F
CROSSVILLE     CLOUDY    36  21  54 E5        30.54S WCI  32
$$

TNZ061-075-076-078-094-096-097-281700-
SOUTH MIDDLE TENNESSEE

CITY           SKY/WX    TMP DP  RH WIND       PRES   REMARKS
FAYETTEVILLE   SUNNY     36  19  51 E3          N/A
TULLAHOMA      MOSUNNY   36  18  48 CALM      30.55S
WINCHESTER     SUNNY     39  25  56 SE9       30.54F WCI  33
MCMINNVILLE    CLOUDY    34  18  51 NE7       30.55F WCI  28
COLUMBIA         N/A     30  16  55 E7        30.57S WCI  23
SHELBYVILLE    CLOUDY    36  19  51 N5        30.57F WCI  32
$$

TNZ017-018-042-046-047-281700-
NORTHEAST TENNESSEE

CITY           SKY/WX    TMP DP  RH WIND       PRES   REMARKS
TRI CITIES     PTSUNNY   30  15  53 E5        30.61R WCI  25
ELIZABETHTON   SUNNY     36  18  48 E6        30.59R WCI  31
$$

TNZ012-013-036-069-073-074-281700-
CENTRAL EAST TENNESSEE

CITY           SKY/WX    TMP DP  RH WIND       PRES   REMARKS
KNOXVILLE      NOT AVBL
OAK RIDGE      SUNNY     36  18  48 VRB5      30.63S WCI  32
GATLINBURG     SUNNY     28  18  64 CALM      30.60F
MORRISTOWN     SUNNY     30  18  59 NE3       30.60S
$$

TNZ083-085-099-281700-
SOUTHEAST TENNESSEE

CITY           SKY/WX    TMP DP  RH WIND       PRES   REMARKS
CHATTANOOGA    PTSUNNY   37  19  48 N8        30.61S WCI  31
$$

SKY/WX REPORTED AS FAIR MEANS FEW OR NO CLOUDS BELOW
12 THOUSAND FEET.



USA.gov is the U.S. government's official web portal to all federal, state and local government web resources and services.